Dewpoint
65 66 66 66 66 67 68 68 69 69 70 71 72 72 72 72 72 72 71 72 71 70 70 69 69 69 70 68 68 68 70 72 71 72 71 70 71 73 76 74 75 75 75 75 75 75 76 76 77 78 77 76 76 76 76 76 77 76 74 76 73 70 68 68 67 66 65 62 63 59 62 63 64 65 63 62 64 63 66 64 64 65 66 66 67
64 66 66 66 66 67 67 69 69 69 70 71 71 72 73 72 72 72 72 72 71 71 71 70 71 69 69 69 68 68 70 70 71 72 70 70 73 75 76 75 75 75 75 76 76 77 78 76 77 77 77 76 77 77 77 77 77 76 76 74 73 68 68 64 66 65 63 58 60 60 59 60 64 62 60 58 62 63 63 65 65 61 59 62 64
64 65 66 66 66 66 67 69 69 69 70 70 71 72 73 73 73 74 72 72 71 72 72 72 72 72 71 71 70 69 71 72 70 71 72 71 73 76 76 75 75 75 76 76 76 77 78 77 77 77 77 77 77 77 78 78 77 76 75 71 69 70 68 68 68 66 59 59 62 60 58 58 59 60 59 59 60 61 62 61 62 59 60 63 64
64 65 64 65 66 67 68 68 69 68 69 70 70 71 72 73 73 73 73 73 72 72 73 74 74 74 74 73 72 71 71 72 73 72 73 72 72 75 76 75 75 74 75 75 76 76 78 77 76 76 78 78 77 77 77 77 77 76 74 72 71 67 66 66 66 66 63 60 60 58 57 55 56 60 59 59 59 60 59 59 62 63 63 66 64
65 65 65 65 66 67 68 69 68 68 69 70 70 70 70 72 73 74 73 73 73 74 74 75 74 75 74 74 74 73 73 73 73 72 73 74 72 74 75 75 75 75 74 75 75 76 77 77 76 76 77 78 77 76 77 76 76 75 73 72 71 66 62 63 68 66 64 64 61 53 53 54 55 55 53 57 57 58 59 59 65 62 65 66 61
66 66 66 66 67 68 69 70 69 69 70 70 69 70 71 72 73 74 74 74 74 75 75 75 74 73 73 72 71 71 72 72 72 71 71 71 69 69 74 74 74 75 75 75 75 75 76 76 77 76 77 76 76 74 75 76 76 74 72 72 71 70 67 64 63 66 64 66 65 63 65 61 57 58 57 59 63 60 62 64 64 59 66 62 65
65 65 66 65 67 67 69 70 69 68 69 70 70 71 71 72 73 74 74 74 74 75 75 75 75 74 74 72 71 71 71 72 73 72 72 70 71 71 72 74 75 74 74 75 75 75 75 77 77 76 76 75 76 76 75 75 74 73 73 71 70 70 69 66 65 63 65 66 64 60 60 61 61 60 59 60 60 62 59 60 62 63 62 61 61
64 66 66 66 67 67 68 69 69 67 68 69 70 70 72 73 74 74 74 74 75 75 75 75 74 74 74 73 72 72 71 72 74 74 73 73 73 72 72 74 76 75 74 75 75 75 75 76 77 76 75 75 74 75 74 74 74 74 74 73 72 72 69 67 65 64 62 65 63 63 61 61 64 63 63 61 60 59 60 59 59 59 58 57 59
63 65 65 66 67 67 68 69 69 68 69 69 70 71 72 73 74 74 74 75 75 76 75 74 74 74 74 74 73 72 73 73 74 74 73 74 74 74 74 74 76 77 75 74 76 75 75 76 76 76 75 75 75 74 73 73 74 74 74 74 73 72 71 69 66 65 63 63 65 64 64 62 61 61 63 64 61 59 56 58 59 57 58 57 56
62 64 65 66 66 67 67 68 69 68 68 71 71 72 72 74 75 75 75 75 75 76 75 75 75 75 74 74 74 73 73 73 73 74 74 75 75 75 75 74 74 76 76 75 76 76 75 76 75 75 75 73 74 73 73 74 74 75 75 74 73 71 71 69 67 66 64 66 65 66 64 63 64 63 62 60 60 62 58 55 57 58 57 57 59
62 63 64 66 67 67 68 68 69 69 69 70 71 72 73 74 75 75 76 75 75 75 74 74 74 75 74 75 75 75 74 73 73 75 75 76 75 75 74 75 75 74 74 76 75 76 76 76 74 74 74 74 75 74 74 72 72 74 74 74 74 72 71 69 68 67 66 66 66 66 65 62 63 62 62 59 60 60 58 53 53 53 51 56 60
62 62 63 65 67 67 68 68 69 70 70 70 70 71 72 74 75 75 76 76 75 75 74 73 74 74 75 75 75 75 75 74 74 74 75 75 75 74 74 74 75 74 75 73 75 74 76 76 76 75 75 75 74 75 74 74 72 73 73 74 74 72 72 70 69 67 66 67 66 63 63 62 62 62 61 62 62 60 59 58 57 59 58 55 60
62 63 64 64 66 67 67 69 70 71 71 71 71 70 72 74 75 75 76 76 75 74 74 74 74 75 75 75 75 76 75 75 74 74 75 75 75 74 74 74 75 74 74 74 74 75 75 77 77 76 75 76 76 75 75 75 75 74 73 74 74 73 71 71 68 67 65 64 62 61 61 61 61 61 60 59 61 62 62 59 57 55 58 57 60
61 62 63 65 66 66 68 68 70 70 71 70 71 71 72 73 75 75 76 75 75 75 75 74 74 75 75 75 76 76 76 75 74 73 73 74 75 74 73 73 74 74 74 75 73 75 75 77 78 77 77 76 76 76 75 75 76 74 74 74 73 73 72 72 70 67 67 66 65 62 60 60 61 61 60 60 59 59 59 58 61 59 56 56 61
61 63 62 63 65 67 67 68 69 70 70 70 70 71 72 73 74 75 76 76 76 75 74 74 73 75 75 75 76 76 75 75 74 74 74 74 74 74 75 73 73 74 74 76 76 75 76 77 78 77 77 77 77 75 74 75 76 75 75 75 74 73 72 71 69 67 65 66 65 65 63 62 60 62 59 61 60 60 60 61 61 61 57 55 58
58 60 62 64 66 67 67 68 68 69 71 70 71 71 72 73 74 75 75 76 75 75 75 74 74 74 75 75 75 76 76 75 75 75 74 74 75 75 75 75 74 74 76 76 76 76 76 77 78 77 78 77 76 76 75 74 75 75 75 75 75 72 72 72 70 68 66 67 66 66 65 61 63 61 62 61 61 62 62 62 62 62 60 58 58
58 59 61 65 65 67 67 68 67 68 69 70 71 72 73 72 73 74 75 76 75 76 75 74 74 74 75 75 75 75 75 75 74 74 73 74 75 75 74 74 75 75 75 76 76 77 77 77 77 77 77 77 77 76 75 75 75 75 74 75 74 72 72 73 70 69 68 65 65 66 65 63 63 65 63 62 65 66 64 63 62 61 62 60 59
57 61 63 64 65 66 66 66 67 67 68 70 72 72 72 72 73 74 75 75 75 75 74 74 75 75 75 76 76 76 74 75 74 74 75 74 75 75 75 74 74 74 74 75 76 76 77 78 77 77 77 77 76 76 75 75 75 74 75 75 74 74 73 73 72 70 69 68 66 66 66 63 65 66 63 62 65 67 64 64 63 63 63 62 60
56 58 61 63 64 65 67 65 65 67 69 70 70 70 71 72 72 72 74 74 74 73 74 74 74 74 75 75 75 75 74 75 75 75 75 74 73 74 74 74 74 75 75 76 76 76 77 77 77 77 77 77 76 75 76 75 75 74 74 74 74 75 73 73 73 71 69 68 68 66 67 65 66 66 65 62 64 66 65 63 63 64 64 64 63
55 57 59 61 62 63 64 64 64 66 68 68 68 68 68 69 71 72 73 74 74 75 75 75 74 75 74 75 76 76 77 76 75 75 74 74 74 73 74 73 74 74 75 75 75 75 75 75 76 75 75 75 76 75 75 76 75 75 74 73 73 74 73 73 72 71 69 69 69 67 68 67 66 66 66 64 64 67 65 63 64 64 65 65 64
55 57 58 61 62 61 62 64 63 64 66 66 66 67 67 68 69 70 72 72 72 73 74 75 74 74 75 76 76 76 76 75 75 75 75 75 75 75 73 74 75 74 75 75 75 76 75 76 75 76 75 76 76 76 76 76 75 75 75 75 74 74 74 73 73 72 70 70 70 69 68 68 68 67 66 64 63 66 66 64 65 64 64 65 65
56 55 56 58 61 61 61 63 64 63 63 64 65 65 66 67 67 68 68 69 70 71 74 74 75 74 74 75 75 75 75 75 75 75 75 74 75 74 75 75 74 75 75 74 76 75 75 75 75 76 76 75 76 77 75 75 75 75 75 75 74 75 75 75 73 73 72 70 71 70 68 68 68 68 67 65 64 63 64 62 64 63 63 63 65
53 54 53 56 60 62 61 63 64 64 64 64 64 64 65 66 66 67 67 68 68 70 72 74 74 74 75 75 75 75 75 75 74 74 73 72 73 75 75 75 74 73 75 75 75 75 76 76 76 76 77 76 77 77 76 75 75 75 75 74 74 75 75 74 73 73 72 71 71 71 69 68 68 67 67 66 65 64 64 64 63 63 64 63 65
55 55 52 55 57 61 64 64 65 65 66 64 64 65 65 65 64 65 66 66 67 68 70 73 74 74 74 74 75 74 74 73 73 73 72 72 72 73 75 74 74 73 73 76 75 75 76 77 76 76 77 77 76 76 76 76 75 75 76 76 76 75 75 74 73 73 72 72 71 71 69 68 68 68 67 66 66 65 65 65 65 65 65 64 65
55 54 54 55 55 60 65 65 68 67 64 65 65 65 64 65 64 64 65 66 67 68 69 71 72 72 72 74 74 74 73 73 72 72 72 71 71 72 73 74 74 73 73 75 76 76 76 77 76 76 77 77 76 77 76 75 75 76 76 75 75 76 75 75 74 74 73 73 72 71 70 69 69 68 68 66 66 66 66 66 65 65 65 65 64
60 59 58 56 60 62 66 67 68 66 64 67 67 65 64 64 65 64 64 66 67 67 68 70 71 71 73 74 74 73 72 73 72 71 71 71 71 71 72 73 73 73 73 73 75 75 75 76 77 77 77 77 77 77 77 76 75 75 76 75 75 75 74 75 74 73 73 73 72 72 70 70 69 69 68 67 67 67 67 66 66 66 66 66 66
60 61 60 62 63 63 66 68 65 63 65 65 65 65 64 66 66 64 64 66 68 68 70 69 70 70 73 74 74 73 73 72 73 72 71 71 70 70 70 71 73 73 72 72 72 75 75 76 77 77 76 77 77 77 76 76 76 76 76 75 74 75 74 74 74 73 72 72 72 71 71 70 70 70 69 68 68 68 67 68 68 68 66 66 66
61 62 63 64 65 65 66 68 66 64 65 64 64 64 65 66 65 65 64 64 65 68 69 69 70 71 73 73 74 74 73 73 73 74 73 72 71 72 72 73 73 73 72 72 71 73 74 75 76 76 77 77 77 77 77 77 76 76 76 75 75 74 74 74 74 73 72 71 71 71 70 70 70 71 70 69 69 69 69 69 68 68 67 67 66
58 63 65 66 65 68 67 66 66 63 63 64 63 64 66 67 66 66 63 64 67 68 69 69 71 72 73 74 75 75 74 74 74 74 74 73 73 73 73 73 74 73 72 72 72 72 74 75 75 76 76 76 76 76 76 77 76 76 76 75 75 74 74 74 74 73 72 72 72 71 70 69 71 71 69 69 68 69 70 70 70 69 69 68 67
51 61 62 65 65 67 69 68 68 65 65 62 64 66 64 65 66 65 66 65 67 69 70 70 71 73 74 74 75 75 75 75 75 75 75 75 74 74 74 74 74 73 74 74 74 73 72 73 75 75 76 76 76 76 73 67 69 76 76 75 75 75 74 74 74 73 72 72 71 70 70 69 68 68 67 67 67 68 69 69 70 70 69 68 67
34 63 62 64 65 65 67 69 69 68 66 65 65 66 65 62 64 65 67 65 65 70 71 71 72 74 74 75 76 76 76 75 75 75 76 75 75 74 75 75 75 75 75 75 74 73 72 72 73 74 75 75 75 75 67 65 66 67 74 75 75 75 75 74 74 74 73 72 72 72 72 71 70 68 70 67 67 68 68 67 69 70 69 69 68
33 38 57 66 65 66 66 67 66 66 67 66 67 65 64 63 64 66 64 64 65 67 70 73 73 74 74 75 76 76 76 75 75 76 76 76 75 75 75 75 75 75 75 75 74 74 74 73 73 73 73 74 75 69 64 64 65 65 68 75 74 74 74 74 74 73 73 73 72 71 71 71 71 70 70 71 68 67 66 66 66 67 68 67 67
40 41 62 59 55 59 67 64 63 64 65 65 66 63 66 66 67 68 67 66 67 68 72 73 73 74 75 75 76 76 76 76 76 76 76 76 76 75 75 75 75 75 76 76 75 75 74 74 73 74 73 73 74 66 63 63 63 64 65 69 73 74 74 73 74 74 73 73 73 72 72 72 72 68 69 70 71 70 65 64 64 65 66 65 63
29 38 54 58 61 61 60 63 66 64 60 66 67 64 65 67 67 68 68 70 69 70 72 73 73 74 75 75 76 76 76 76 76 76 76 76 76 76 76 75 75 76 76 75 75 75 75 75 75 74 75 74 74 65 62 61 62 62 63 66 73 73 73 73 74 73 73 73 73 73 72 72 72 72 71 71 71 71 70 68 68 67 67 66 64
48 56 55 61 67 69 68 67 62 60 63 64 65 64 64 66 67 67 69 70 70 70 72 73 73 74 74 75 75 75 75 75 76 76 76 76 76 76 76 75 74 74 75 75 75 75 75 75 75 74 74 73 72 63 60 60 60 60 62 64 73 73 73 73 74 74 74 73 74 73 73 73 73 73 71 70 71 71 70 69 68 66 66 66 67
46 61 70 73 69 69 68 69 67 63 61 62 64 64 61 66 68 69 70 70 71 72 72 73 73 73 74 74 74 74 74 75 75 75 75 75 75 75 76 75 75 74 74 74 75 75 75 75 75 74 73 73 73 62 59 59 59 59 61 69 73 73 73 73 74 73 72 72 72 73 73 73 73 73 69 65 68 71 70 69 69 68 67 66 66
67 66 66 72 73 72 72 73 71 66 62 61 62 63 63 65 68 68 71 71 71 72 72 73 73 73 73 73 73 74 74 74 75 75 75 75 75 75 76 76 75 74 73 74 74 74 75 73 73 73 73 73 72 66 58 58 58 58 61 71 73 73 73 73 73 73 72 72 72 72 72 72 72 73 67 62 64 67 70 70 69 69 68 67 67
65 70 69 72 72 72 72 71 69 68 66 65 64 65 66 67 69 69 70 70 69 70 71 73 72 72 73 74 74 74 74 75 75 75 74 74 74 75 75 75 74 74 72 73 73 73 73 73 73 73 71 72 72 66 56 56 57 57 63 72 72 72 73 73 73 72 72 72 72 69 71 71 71 71 62 61 62 67 70 69 69 68 68 67 67
69 69 68 70 73 73 70 70 69 67 67 67 67 67 65 67 69 69 69 68 68 69 70 71 72 72 73 73 73 74 74 74 75 74 74 74 74 75 75 75 74 74 73 74 73 73 72 73 72 71 67 70 72 66 56 56 56 56 63 73 72 72 72 73 72 72 72 71 71 70 67 68 69 69 59 59 60 64 70 69 70 68 67 67 67
68 69 70 72 73 73 72 71 69 73 72 70 68 66 67 69 70 67 67 66 68 69 71 71 71 71 72 73 73 75 75 74 74 75 75 75 75 74 74 74 74 74 73 73 72 72 73 73 72 72 71 71 72 74 64 55 55 55 58 72 73 72 72 72 72 72 71 71 71 72 69 62 62 61 57 57 58 60 69 70 69 68 67 67 67
67 68 70 71 71 72 72 72 73 73 70 70 68 68 68 69 70 69 68 67 69 70 72 72 73 71 71 72 72 73 74 73 74 75 75 74 73 73 74 74 73 73 73 73 73 73 72 73 72 72 73 72 72 72 70 54 55 54 57 63 72 73 73 73 73 71 70 70 70 71 71 64 59 58 56 56 56 57 63 70 69 68 68 68 67
69 69 70 71 70 72 73 72 73 71 69 70 70 68 69 71 71 69 69 68 70 72 73 73 74 73 71 72 72 74 74 73 74 74 75 75 75 74 74 74 73 74 75 75 75 74 73 72 73 73 74 73 70 66 75 56 55 54 56 57 70 72 72 73 72 72 71 70 70 71 72 65 58 57 55 54 54 56 59 69 72 62 61 61 69
68 69 69 69 70 71 71 71 69 71 70 69 69 71 72 72 71 71 71 72 72 73 74 74 74 73 73 73 73 74 74 73 73 74 75 75 75 75 75 75 75 75 75 74 74 74 73 72 72 73 72 73 75 74 64 64 54 54 54 56 61 68 65 74 72 72 71 70 71 71 70 62 58 55 54 54 54 55 57 65 60 59 57 59 64
65 66 68 68 70 70 69 70 70 73 74 73 72 72 73 74 74 75 76 74 74 74 74 74 74 73 73 73 73 73 74 74 74 75 75 75 75 75 75 75 75 74 73 73 72 72 72 71 71 71 72 73 75 73 65 60 61 53 54 54 57 60 63 70 72 71 71 71 71 72 69 57 55 52 52 53 54 55 61 58 56 56 58 61 66
66 65 67 67 68 69 69 70 70 72 73 74 74 74 74 73 73 74 75 75 75 73 73 73 73 73 73 73 73 74 74 75 75 75 75 74 75 76 74 75 74 74 73 72 72 71 72 72 72 71 71 72 72 73 74 67 58 55 54 54 55 58 59 60 71 72 72 70 66 62 59 54 54 53 53 53 54 54 57 57 56 56 61 66 66
67 67 68 68 68 69 69 70 70 70 71 71 72 72 72 72 73 73 74 75 75 75 74 73 73 73 73 73 72 72 74 75 74 74 75 75 75 74 73 73 73 72 72 72 72 71 71 72 72 72 72 72 73 73 74 73 61 58 56 55 55 56 58 58 63 69 64 63 60 58 56 55 55 56 59 61 61 60 57 58 57 59 67 65 64
67 68 68 69 68 67 68 69 69 69 69 69 70 70 71 71 72 72 73 74 75 74 74 75 74 73 74 74 73 71 71 72 74 72 72 73 73 72 72 72 72 72 71 71 72 72 72 71 71 71 72 73 74 72 73 73 70 66 63 61 59 60 57 58 63 69 66 68 63 62 62 58 58 57 60 60 60 58 59 61 62 65 66 64 63
67 67 67 68 68 68 68 68 68 68 68 69 69 69 70 70 70 71 72 73 74 74 74 74 73 73 73 73 72 72 72 71 70 71 70 70 71 71 71 72 72 72 72 71 72 71 71 71 70 71 71 72 72 72 72 72 71 69 67 66 63 62 63 65 67 69 71 71 66 59 58 62 61 61 62 63 63 62 62 63 65 65 65 63 62
67 67 67 67 67 67 67 67 67 67 68 68 68 68 69 69 69 70 71 71 72 73 73 74 73 73 73 74 75 74 73 71 71 72 71 73 74 73 74 75 75 75 73 72 73 73 74 74 73 72 72 70 71 71 72 64 73 62 66 67 65 64 65 66 64 63 70 68 65 64 64 63 62 62 62 63 63 63 63 64 65 65 64 63 63
66 67 67 67 67 67 67 67 67 67 67 67 67 67 68 68 69 70 70 70 70 70 70 71 71 71 72 72 72 72 73 73 73 72 72 72 69 61 67 70 71 65 59 54 58 69 70 68 69 70 72 72 71 72 62 57 57 55 56 58 59 59 59 64 62 60 65 67 66 65 63 62 62 62 63 63 62 63 63 63 64 61 62 61 62
66 66 67 67 67 67 67 67 67 67 67 67 67 67 67 68 68 68 69 68 69 68 68 68 67 68 69 69 70 70 70 70 70 70 70 69 69 73 57 56 60 60 56 51 49 50 50 52 64 67 66 60 59 57 55 56 54 51 53 54 55 55 55 56 57 62 67 67 65 64 63 63 63 63 63 63 63 63 63 63 63 63 65 64 62